This is the latest recevied weather packets stored in our database for station/object IT9RID. If no packets are shown the sender has not sent any weather packets the latest 10 day(s).
| Time | Temp. | Humidity | Pressure | Rain* | Wind** | Luminosity | Snow |
|---|---|---|---|---|---|---|---|
| 1787559364 | 30° C | 65% | 1014.6 hPa | 0 mm | - | - | - |
| 1787558763 | 30° C | 66% | 1014.6 hPa | 0 mm | - | - | - |
| 1787557563 | 30° C | 60% | 1014.6 hPa | 0 mm | - | - | - |
| 1787556962 | 30.56° C | 58% | 1014.6 hPa | 0 mm | - | - | - |
| 1787556362 | 30.56° C | 59% | 1014.6 hPa | 0 mm | - | - | - |
| 1787555762 | 29.44° C | 61% | 1014.7 hPa | 0 mm | - | - | - |
| 1787555162 | 29.44° C | 61% | 1014.8 hPa | 0 mm | - | - | - |
| 1787554571 | 29.44° C | 61% | 1014.8 hPa | 0 mm | - | - | - |
| 1787553361 | 28.33° C | 65% | 1014.7 hPa | 0 mm | - | - | - |
| 1787552761 | 27.78° C | 65% | 1014.7 hPa | 0 mm | - | - | - |
| 1787552161 | 27.78° C | 63% | 1014.6 hPa | 0 mm | - | - | - |
| 1787550961 | 26.67° C | 60% | 1014.4 hPa | 0 mm | - | - | - |
| 1787550360 | 26.11° C | 60% | 1014.2 hPa | 0 mm | - | - | - |
| 1787549760 | 26.11° C | 63% | 1014.2 hPa | 0 mm | - | - | - |
| 1787549160 | 26.11° C | 64% | 1014 hPa | 0 mm | - | - | - |
| 1787548560 | 25.56° C | 65% | 1014 hPa | 0 mm | - | - | - |
| 1787547960 | 25° C | 65% | 1014.1 hPa | 0 mm | - | - | - |
| 1787547360 | 25° C | 66% | 1013.9 hPa | 0 mm | - | - | - |
| 1787546759 | 24.44° C | 66% | 1013.9 hPa | 0 mm | - | - | - |
| 1787546160 | 24.44° C | 67% | 1013.6 hPa | 0 mm | - | - | - |
| 1787545559 | 24.44° C | 66% | 1013.5 hPa | 0 mm | - | - | - |
| 1787544959 | 24.44° C | 66% | 1013.3 hPa | 0 mm | - | - | - |
| 1787544359 | 24.44° C | 65% | 1013.2 hPa | 0 mm | - | - | - |
| 1787543759 | 24.44° C | 67% | 1013 hPa | 0 mm | - | - | - |
| 1787543159 | 24.44° C | 67% | 1013 hPa | 0 mm | - | - | - |
* Rain latest hour (hover to see other rain measurements)
** Current wind speed in m/s (hover to see current wind gust speed)